Bad Axe, MI

9:22 AM EST on February 13, 2016 (GMT -0500)
Huron County Memorial

Weather History for KBAX - December, 2011

Change the Weather History Date:

Tuesday, December 20, 2011

  Actual Average (KP58) Record (KP58)
Temperature  
Mean Temperature 30 °F -  
Max Temperature 32 °F 31 °F 44 °F (2012)
Min Temperature 28 °F 21 °F 3 °F (2004)
Degree Days  
Heating Degree Days 35    
Moisture  
Dew Point 24 °F    
Average Humidity 74    
Maximum Humidity 93    
Minimum Humidity 64    
Precipitation  
Precipitation 0.00 in - - ()
Sea Level Pressure  
Sea Level Pressure 30.10 in    
Wind  
Wind Speed 6 mph (SE)    
Max Wind Speed 10 mph    
Max Gust Speed -    
Visibility 10 miles    
Events      
Averages and records for this station are not official NWS values.
T = Trace of Precipitation, MM = Missing Value Source: NWS Daily Summary

Daily Weather History Graph

Daily Weather History Graph

Search for Another Location

Airport or City:

Trip Planner

Search our weather history database for the weather conditions in past years. The results will help you decide how hot, cold, wet, or windy it might be!

Date:

Astronomy

Dec. 20, 2011 Rise Set
Actual Time 8:02 AM EST 4:56 PM EST
Civil Twilight 7:29 AM EST 5:29 PM EST
Nautical Twilight 6:52 AM EST 6:06 PM EST
Astronomical Twilight 6:17 AM EST 6:41 PM EST
Moon 3:17 AM EST (12/20) 1:36 PM EST (12/20)
Length of Visible Light 10h 00m
Length of Day
8h 54m
Waning Crescent, 21% of the Moon is Illuminated
Dec 20
Waning Crescent
Dec 24
New
Jan 1
First Quarter
Jan 9
Full
Jan 16
Last Quarter

Hourly Weather History & Observations

Time (EST) Temp. Windchill Dew Point Humidity Pressure Visibility Wind Dir Wind Speed Gust Speed Precip Events Conditions
12:13 AM 32.0 °F 23.6 °F 23.0 °F 69% 30.19 in 10.0 mi North 10.4 mph - N/A   Overcast
12:34 AM 30.2 °F 21.9 °F 23.0 °F 75% 30.18 in 10.0 mi North 9.2 mph - N/A   Overcast
12:53 AM 30.2 °F 22.6 °F 23.0 °F 75% 30.18 in 10.0 mi NNW 8.1 mph - N/A   Overcast
1:34 AM 30.2 °F 21.9 °F 23.0 °F 75% 30.18 in 10.0 mi NNW 9.2 mph - N/A   Overcast
1:53 AM 30.2 °F 22.6 °F 23.0 °F 75% 30.17 in 10.0 mi North 8.1 mph - N/A   Overcast
2:13 AM 30.2 °F 22.6 °F 23.0 °F 75% 30.17 in 10.0 mi NNW 8.1 mph - N/A   Overcast
2:34 AM 30.2 °F 23.4 °F 23.0 °F 75% 30.18 in 10.0 mi North 6.9 mph - N/A   Overcast
2:53 AM 32.0 °F 26.4 °F 23.0 °F 69% 30.20 in 10.0 mi North 5.8 mph - N/A   Overcast
3:14 AM 30.2 °F 24.3 °F 21.2 °F 69% 30.20 in 10.0 mi NNE 5.8 mph - N/A   Overcast
3:33 AM 30.2 °F 25.4 °F 21.2 °F 69% 30.21 in 10.0 mi NE 4.6 mph - N/A   Overcast
3:53 AM 30.2 °F 24.3 °F 21.2 °F 69% 30.21 in 10.0 mi NE 5.8 mph - N/A   Overcast
4:14 AM 30.2 °F 25.4 °F 21.2 °F 69% 30.22 in 10.0 mi NE 4.6 mph - N/A   Overcast
4:33 AM 30.2 °F - 21.2 °F 69% 30.22 in 10.0 mi Calm Calm - N/A   Overcast
4:53 AM 30.2 °F - 21.2 °F 69% 30.21 in 10.0 mi Calm Calm - N/A   Overcast
5:14 AM 30.2 °F 26.7 °F 21.2 °F 69% 30.20 in 10.0 mi NE 3.5 mph - N/A   Overcast
5:34 AM 30.2 °F - 21.2 °F 69% 30.20 in 10.0 mi Calm Calm - N/A   Overcast
5:53 AM 30.2 °F 26.7 °F 21.2 °F 69% 30.21 in 10.0 mi NE 3.5 mph - N/A   Overcast
6:14 AM 30.2 °F - 21.2 °F 69% 30.21 in 10.0 mi Calm Calm - N/A   Overcast
6:34 AM 30.2 °F 26.7 °F 21.2 °F 69% 30.22 in 10.0 mi ENE 3.5 mph - N/A   Overcast
7:13 AM 30.2 °F 26.7 °F 21.2 °F 69% 30.21 in 10.0 mi East 3.5 mph - N/A   Overcast
7:54 AM 30.2 °F 25.4 °F 21.2 °F 69% 30.21 in 10.0 mi ESE 4.6 mph - N/A   Overcast
8:13 AM 28.4 °F 23.3 °F 21.2 °F 74% 30.21 in 10.0 mi ENE 4.6 mph - N/A   Overcast
8:54 AM 30.2 °F - 21.2 °F 69% 30.21 in 10.0 mi Calm Calm - N/A   Overcast
9:34 AM 30.2 °F 26.7 °F 21.2 °F 69% 30.20 in 10.0 mi ENE 3.5 mph - N/A   Overcast
9:54 AM 30.2 °F - 21.2 °F 69% 30.19 in 10.0 mi Calm Calm - N/A   Scattered Clouds
10:13 AM 30.2 °F - 21.2 °F 69% 30.18 in 10.0 mi Calm Calm - N/A   Scattered Clouds
10:34 AM 32.0 °F 28.7 °F 21.2 °F 64% 30.18 in 10.0 mi ESE 3.5 mph - N/A   Scattered Clouds
10:54 AM 32.0 °F 25.6 °F 21.2 °F 64% 30.18 in 10.0 mi East 6.9 mph - N/A   Scattered Clouds
11:13 AM 32.0 °F 27.5 °F 21.2 °F 64% 30.16 in 10.0 mi East 4.6 mph - N/A   Scattered Clouds
11:34 AM 32.0 °F 26.4 °F 23.0 °F 69% 30.15 in 10.0 mi SE 5.8 mph - N/A   Scattered Clouds
11:54 AM 32.0 °F 26.4 °F 23.0 °F 69% 30.14 in 10.0 mi ESE 5.8 mph - N/A   Scattered Clouds
12:54 PM 32.0 °F 24.2 °F 23.0 °F 69% 30.08 in 10.0 mi SSE 9.2 mph - N/A   Mostly Cloudy
1:14 PM 32.0 °F 24.8 °F 24.8 °F 75% 30.07 in 10.0 mi SSE 8.1 mph - N/A   Mostly Cloudy
1:33 PM 32.0 °F 25.6 °F 23.0 °F 69% 30.06 in 10.0 mi SE 6.9 mph - N/A   Scattered Clouds
1:54 PM 32.0 °F 24.2 °F 23.0 °F 69% 30.06 in 10.0 mi South 9.2 mph - N/A   Clear
2:14 PM 32.0 °F 24.8 °F 23.0 °F 69% 30.05 in 10.0 mi South 8.1 mph - N/A   Clear
2:34 PM 32.0 °F 25.6 °F 23.0 °F 69% 30.04 in 10.0 mi South 6.9 mph - N/A   Clear
2:54 PM 32.0 °F 25.6 °F 23.0 °F 69% 30.04 in 10.0 mi South 6.9 mph - N/A   Scattered Clouds
3:14 PM 32.0 °F 25.6 °F 24.8 °F 75% 30.04 in 10.0 mi South 6.9 mph - N/A   Scattered Clouds
3:34 PM 32.0 °F 24.2 °F 24.8 °F 75% 30.02 in 10.0 mi South 9.2 mph - N/A   Scattered Clouds
3:54 PM 32.0 °F 25.6 °F 24.8 °F 75% 30.02 in 10.0 mi South 6.9 mph - N/A   Overcast
4:14 PM 32.0 °F 24.8 °F 24.8 °F 75% 30.02 in 10.0 mi South 8.1 mph - N/A   Mostly Cloudy
4:33 PM 32.0 °F 25.6 °F 24.8 °F 75% 30.02 in 10.0 mi South 6.9 mph - N/A   Scattered Clouds
4:54 PM 30.2 °F 24.3 °F 24.8 °F 80% 30.01 in 10.0 mi South 5.8 mph - N/A   Mostly Cloudy
5:34 PM 32.0 °F 26.4 °F 24.8 °F 75% 30.00 in 10.0 mi South 5.8 mph - N/A   Overcast
5:54 PM 32.0 °F 26.4 °F 26.6 °F 80% 29.99 in 10.0 mi South 5.8 mph - N/A   Overcast
6:34 PM 32.0 °F 28.7 °F 26.6 °F 80% 29.99 in 10.0 mi SSE 3.5 mph - N/A   Overcast
6:53 PM 32.0 °F 26.4 °F 26.6 °F 80% 29.98 in 10.0 mi South 5.8 mph - N/A   Overcast
7:14 PM 32.0 °F 24.8 °F 26.6 °F 80% 29.97 in 10.0 mi South 8.1 mph - N/A   Overcast
7:34 PM 32.0 °F 25.6 °F 26.6 °F 80% 29.98 in 10.0 mi South 6.9 mph - N/A   Overcast
7:53 PM 32.0 °F 25.6 °F 26.6 °F 80% 29.97 in 10.0 mi South 6.9 mph - N/A   Overcast
8:14 PM 32.0 °F 26.4 °F 28.4 °F 87% 29.97 in 10.0 mi South 5.8 mph - N/A   Overcast
8:34 PM 32.0 °F 25.6 °F 28.4 °F 87% 29.95 in 10.0 mi South 6.9 mph - N/A   Overcast
8:54 PM 32.0 °F 27.5 °F 28.4 °F 87% 29.94 in 10.0 mi South 4.6 mph - N/A   Overcast
9:14 PM 32.0 °F 28.7 °F 28.4 °F 87% 29.92 in 10.0 mi SSE 3.5 mph - N/A   Overcast
9:33 PM 32.0 °F 27.5 °F 30.2 °F 93% 29.92 in 10.0 mi South 4.6 mph - N/A   Overcast
9:54 PM 32.0 °F 27.5 °F 30.2 °F 93% 29.91 in 10.0 mi SSE 4.6 mph - N/A   Overcast
10:14 PM 32.0 °F 27.5 °F 30.2 °F 93% 29.90 in 7.0 mi SSE 4.6 mph - N/A   Overcast
10:33 PM 32.0 °F 26.4 °F 30.2 °F 93% 29.90 in 5.0 mi South 5.8 mph - N/A   Overcast
10:53 PM 32.0 °F 25.6 °F 30.2 °F 93% 29.89 in 7.0 mi South 6.9 mph - N/A   Overcast
11:13 PM 32.0 °F 25.6 °F 32.0 °F 100% 29.90 in 7.0 mi South 6.9 mph - N/A   Overcast
11:34 PM 32.0 °F 27.5 °F 32.0 °F 100% 29.89 in 7.0 mi South 4.6 mph - N/A   Overcast
11:53 PM 32.0 °F 27.5 °F 32.0 °F 100% 29.88 in 5.0 mi South 4.6 mph - N/A   Overcast